Temp
20 20 20 19 19 19 19 20 20 19 19 19 19 19 18 17 16 17 17 16 17 16 16 16 16 15 15 15 15 15 15 15 15 14 13 13 13 13 13 13 13 13 13
21 20 20 19 19 19 19 19 19 19 19 19 18 18 18 17 16 16 16 16 15 16 16 16 15 15 14 14 15 15 15 14 14 14 13 13 13 13 13 13 13 12 12
21 21 21 20 19 19 19 18 19 19 19 18 18 17 17 17 16 16 16 16 16 15 15 15 14 14 14 14 14 14 14 14 14 14 13 12 12 12 12 11 11 12 12
21 21 21 20 19 18 18 18 18 18 18 18 17 17 16 16 16 16 16 16 16 15 15 14 14 14 13 14 14 14 14 14 13 14 13 12 11 11 11 11 11 11 11
22 22 21 21 20 19 18 18 18 17 17 17 17 16 16 15 15 15 15 16 16 15 15 13 12 13 13 13 13 13 13 13 13 13 12 11 11 11 11 10 11 12 11
22 21 21 21 20 19 19 18 17 17 17 16 16 16 16 15 14 13 14 14 14 14 13 12 12 13 13 13 13 13 12 12 12 12 11 11 11 10 10 10 12 12 12
22 21 22 21 20 18 17 16 16 16 16 16 15 14 14 15 15 15 13 12 13 13 13 12 13 13 12 12 12 13 12 12 12 12 11 10 10 10 10 11 12 12 12
21 21 20 20 19 18 17 16 16 15 15 16 15 13 14 14 14 16 15 12 13 13 12 13 12 12 12 11 12 12 11 11 12 11 10 9 9 9 9 11 11 11 12
21 21 20 19 19 18 17 16 14 15 14 14 14 13 14 13 14 15 14 13 13 13 12 13 12 12 11 11 11 11 11 12 12 11 11 9 9 8 9 10 11 11 12
20 20 19 19 18 18 17 15 14 14 14 13 13 13 14 14 13 14 13 13 12 13 12 13 12 12 11 11 10 10 11 11 11 11 10 9 8 8 9 10 10 11 10
19 20 19 18 18 18 16 14 13 13 13 13 12 12 13 13 13 13 11 12 12 12 12 13 12 11 11 11 11 11 11 11 11 11 11 8 8 8 8 10 10 11 11
20 20 18 18 17 17 16 14 13 13 12 12 12 12 13 13 12 11 11 11 11 12 12 13 11 11 11 11 11 11 11 11 11 11 11 8 7 7 9 9 11 12 12
20 19 18 17 17 17 15 13 13 13 12 12 12 12 12 12 12 11 11 11 11 11 12 12 11 11 11 11 11 12 11 11 11 11 10 8 8 8 10 12 12 12 12
19 18 18 16 16 16 15 13 12 12 12 12 12 12 12 12 11 12 11 11 11 11 12 11 11 11 11 11 11 11 11 11 11 11 12 11 10 8 11 12 12 12 12
19 18 18 16 16 16 15 13 12 12 12 13 12 12 11 11 11 11 11 10 12 11 12 12 11 11 11 11 11 11 11 11 11 11 12 12 10 10 12 12 11 11 11
19 18 18 16 15 15 15 13 12 12 12 12 12 12 11 11 11 11 11 11 12 12 12 12 11 12 11 11 11 11 11 11 11 11 12 12 12 12 12 11 11 11 11
19 18 18 16 16 15 15 12 11 11 11 12 11 11 11 11 11 11 11 11 11 12 12 12 11 11 11 11 11 11 11 11 11 11 12 12 11 11 12 11 11 11 11
19 18 17 16 15 15 14 12 11 11 11 11 12 11 11 11 10 11 11 11 11 12 12 12 12 11 11 10 10 11 10 10 11 11 12 12 11 12 11 11 11 11 11
19 18 17 16 15 14 14 11 11 11 11 11 11 11 11 11 10 10 10 10 11 12 12 12 11 11 11 10 10 10 10 10 11 10 11 11 11 11 11 11 11 11 11
19 17 17 16 15 14 11 10 10 10 10 11 11 11 11 11 11 10 10 11 12 12 11 11 10 11 11 10 10 10 10 10 10 10 10 11 11 11 11 11 11 11 11
18 17 16 16 15 14 11 10 9 10 10 10 11 11 11 11 11 10 11 10 11 12 11 11 10 10 11 10 10 9 9 10 10 10 10 10 10 11 11 10 11 10 10
19 17 16 15 15 14 12 9 9 9 10 10 10 10 10 11 11 11 10 10 10 10 11 11 11 10 10 10 11 10 9 9 9 10 10 10 10 10 10 10 10 10 10
18 17 16 15 15 13 11 9 9 10 9 9 9 9 10 10 11 10 10 11 9 10 11 10 10 10 10 10 11 10 9 9 9 9 9 10 10 10 10 10 10 10 10
17 16 16 15 14 13 11 9 9 9 9 9 9 9 10 10 10 10 10 10 9 10 10 10 10 10 10 10 10 10 10 10 10 10 9 10 10 10 10 10 10 10 10
17 16 15 14 13 13 10 9 8 9 9 9 9 8 9 10 10 10 10 9 9 10 10 10 10 10 11 11 12 10 10 11 11 11 11 10 10 10 10 10 10 10 10
16 15 14 13 13 11 10 9 8 8 8 8 8 8 8 8 8 8 9 8 9 9 9 10 10 10 10 11 10 10 11 11 11 11 11 11 11 11 11 10 10 11 11
Height
1497 1497 1497 1498 1499 1501 1501 1502 1503 1505 1507 1510 1511 1513 1515 1518 1520 1522 1523 1525 1527 1528 1529 1531 1532 1535 1536 1538 1538 1541 1541 1543 1544 1546 1548 1549 1551 1551 1552 1553 1555 1556 1557
1496 1496 1497 1498 1499 1501 1502 1502 1502 1505 1507 1509 1511 1514 1516 1518 1520 1521 1523 1525 1527 1529 1530 1531 1534 1535 1537 1539 1540 1541 1543 1544 1545 1546 1549 1552 1552 1553 1554 1556 1557 1559 1559
1493 1495 1496 1497 1498 1500 1502 1503 1503 1504 1506 1508 1510 1513 1517 1518 1521 1522 1523 1525 1526 1527 1529 1531 1534 1536 1537 1540 1541 1542 1543 1545 1547 1547 1548 1552 1554 1555 1556 1557 1558 1561 1562
1491 1493 1494 1496 1497 1498 1500 1502 1504 1504 1505 1506 1509 1511 1514 1516 1518 1522 1524 1526 1526 1527 1528 1530 1533 1535 1538 1540 1543 1544 1545 1546 1548 1550 1550 1554 1556 1557 1558 1559 1559 1562 1562
1488 1491 1492 1494 1495 1497 1498 1500 1502 1503 1504 1504 1506 1507 1510 1513 1517 1521 1524 1526 1526 1526 1528 1530 1533 1534 1538 1540 1543 1544 1546 1546 1549 1551 1551 1556 1557 1557 1560 1560 1561 1562 1563
1487 1489 1490 1492 1493 1495 1496 1497 1499 1501 1501 1502 1503 1506 1509 1512 1513 1518 1524 1529 1528 1526 1528 1530 1531 1535 1537 1541 1543 1544 1546 1548 1549 1551 1553 1556 1558 1558 1560 1561 1562 1563 1565
1485 1486 1488 1490 1490 1492 1493 1495 1497 1498 1498 1499 1499 1504 1507 1511 1512 1512 1522 1528 1530 1527 1528 1529 1531 1534 1538 1541 1541 1543 1546 1549 1550 1550 1552 1554 1558 1560 1562 1563 1563 1565 1565
1483 1484 1485 1486 1487 1489 1490 1492 1494 1495 1495 1497 1497 1500 1505 1508 1511 1510 1515 1524 1527 1528 1527 1529 1531 1534 1537 1540 1541 1544 1547 1549 1550 1552 1553 1555 1559 1560 1562 1564 1565 1566 1565
1481 1482 1483 1483 1484 1485 1487 1489 1492 1494 1493 1494 1496 1500 1501 1503 1504 1507 1505 1512 1524 1526 1528 1528 1531 1535 1539 1539 1542 1544 1547 1548 1550 1551 1553 1557 1559 1561 1562 1565 1566 1567 1567
1478 1479 1479 1481 1482 1482 1483 1486 1488 1491 1492 1493 1494 1496 1498 1498 1498 1500 1506 1511 1519 1524 1527 1527 1531 1536 1539 1540 1543 1545 1547 1549 1552 1552 1554 1556 1560 1562 1564 1565 1567 1568 1570
1475 1475 1476 1477 1478 1478 1480 1481 1485 1488 1489 1490 1491 1493 1494 1494 1494 1492 1501 1508 1516 1522 1525 1525 1532 1537 1540 1541 1544 1546 1547 1551 1553 1553 1554 1557 1560 1563 1564 1566 1568 1570 1571
1470 1470 1472 1473 1474 1475 1476 1477 1481 1484 1485 1487 1488 1490 1492 1493 1494 1495 1497 1506 1511 1519 1523 1523 1532 1537 1540 1541 1543 1546 1549 1551 1553 1553 1554 1558 1562 1564 1564 1568 1570 1571 1573
1467 1467 1467 1470 1472 1473 1474 1475 1477 1480 1482 1484 1486 1487 1490 1492 1493 1495 1496 1502 1510 1516 1521 1525 1531 1536 1539 1541 1541 1543 1550 1552 1554 1554 1556 1558 1561 1564 1565 1568 1571 1573 1575
1462 1462 1463 1466 1468 1470 1471 1472 1475 1478 1479 1481 1482 1484 1486 1489 1490 1493 1496 1497 1505 1511 1518 1524 1529 1536 1542 1541 1542 1547 1551 1552 1553 1555 1557 1558 1561 1565 1566 1570 1573 1575 1577
1457 1458 1459 1461 1463 1466 1467 1469 1471 1474 1476 1478 1480 1482 1483 1485 1486 1491 1493 1489 1501 1509 1515 1522 1529 1535 1540 1539 1544 1547 1549 1552 1553 1555 1558 1560 1563 1566 1568 1571 1573 1575 1578
1453 1455 1456 1458 1460 1462 1464 1465 1468 1471 1473 1475 1478 1480 1481 1483 1483 1481 1485 1494 1502 1507 1514 1521 1527 1534 1538 1539 1543 1547 1550 1552 1553 1555 1558 1561 1564 1567 1570 1572 1574 1576 1578
1448 1451 1452 1454 1456 1458 1461 1462 1465 1468 1469 1472 1475 1478 1479 1481 1484 1484 1482 1494 1500 1507 1514 1520 1526 1533 1537 1539 1543 1547 1550 1553 1554 1556 1559 1562 1565 1568 1570 1573 1575 1576 1578
1443 1445 1448 1450 1452 1454 1457 1458 1461 1463 1466 1469 1472 1474 1476 1477 1481 1485 1489 1494 1500 1507 1513 1519 1524 1531 1536 1539 1542 1546 1550 1554 1555 1557 1560 1563 1566 1569 1571 1573 1575 1576 1578
1436 1439 1442 1445 1447 1450 1453 1455 1458 1460 1463 1465 1468 1470 1473 1476 1479 1483 1487 1493 1500 1505 1511 1516 1522 1529 1534 1538 1542 1546 1550 1553 1555 1558 1561 1564 1567 1569 1572 1573 1575 1576 1578
1432 1436 1439 1440 1442 1445 1448 1451 1454 1456 1459 1462 1464 1466 1469 1473 1477 1482 1486 1492 1496 1502 1508 1514 1520 1528 1533 1536 1540 1545 1549 1553 1556 1559 1561 1564 1566 1569 1571 1573 1574 1576 1577
1427 1430 1433 1435 1438 1440 1443 1447 1450 1451 1454 1457 1459 1462 1465 1469 1473 1476 1483 1489 1493 1497 1505 1512 1518 1525 1531 1536 1539 1545 1549 1554 1557 1558 1560 1563 1565 1567 1569 1570 1572 1573 1574
1419 1425 1428 1430 1433 1436 1439 1443 1446 1447 1449 1453 1456 1459 1462 1463 1466 1472 1478 1484 1491 1495 1502 1509 1515 1521 1528 1533 1536 1541 1548 1555 1555 1557 1559 1561 1564 1565 1566 1568 1569 1570 1572
1414 1418 1422 1426 1429 1432 1435 1439 1442 1444 1447 1449 1451 1454 1457 1461 1464 1467 1472 1476 1491 1493 1498 1506 1513 1516 1523 1531 1536 1540 1545 1548 1551 1553 1555 1557 1560 1561 1563 1564 1566 1567 1568
1409 1415 1419 1422 1425 1428 1431 1435 1438 1440 1442 1444 1447 1449 1452 1457 1460 1463 1467 1472 1486 1491 1498 1506 1512 1517 1521 1527 1533 1539 1542 1543 1547 1549 1552 1554 1555 1556 1558 1560 1561 1563 1564
1405 1409 1415 1419 1421 1424 1427 1432 1437 1439 1442 1443 1445 1447 1450 1452 1456 1460 1465 1469 1482 1489 1496 1505 1511 1515 1522 1526 1531 1536 1540 1542 1543 1545 1546 1548 1551 1552 1554 1555 1557 1558 1559
1402 1407 1411 1415 1417 1421 1425 1430 1434 1437 1439 1441 1444 1447 1450 1451 1452 1455 1459 1468 1479 1485 1495 1504 1510 1516 1522 1525 1530 1533 1536 1539 1540 1542 1544 1545 1547 1548 1550 1552 1553 1554 1555
Wind_Speed
2 4 4 7 11 15 18 19 19 18 18 17 16 14 12 16 20 19 17 18 17 17 19 20 20 23 21 19 18 17 17 16 17 18 20 20 20 20 20 19 19 19 19
5 5 4 4 8 13 17 18 19 19 18 16 16 14 13 14 15 17 17 16 17 18 19 21 23 23 22 19 17 16 16 19 21 23 22 22 20 20 21 21 21 20 20
6 4 5 4 8 12 15 17 17 18 17 17 16 14 12 13 15 16 17 16 16 17 20 21 21 22 21 18 17 16 18 22 24 25 25 24 23 23 23 21 21 20 21
8 5 5 3 3 9 14 16 16 16 17 17 18 17 17 16 16 15 15 16 17 19 21 23 23 23 21 18 18 20 22 23 22 22 24 22 20 20 20 22 21 18 18
5 3 3 3 0 3 11 15 16 18 18 20 22 24 24 22 17 15 14 15 18 21 23 25 25 24 22 20 21 21 21 22 21 21 22 20 19 17 18 17 15 13 15
6 4 2 3 3 5 10 15 17 18 20 22 24 25 25 23 23 17 11 14 20 21 22 25 26 25 23 22 21 22 21 20 20 19 23 21 19 18 16 14 12 13 16
7 6 5 8 7 9 12 15 17 19 21 22 26 26 26 23 19 15 15 18 23 23 24 25 25 25 26 25 24 22 20 17 16 18 23 21 19 18 18 13 11 14 17
10 8 9 10 11 11 14 16 18 21 22 24 28 27 28 25 25 25 21 27 24 23 25 27 28 28 29 30 25 22 22 19 16 16 21 21 19 20 18 15 17 18 18
12 12 12 13 14 15 16 17 19 22 23 24 23 23 23 15 22 22 22 25 29 27 23 31 31 33 36 32 24 24 21 15 11 15 21 22 22 22 19 18 18 18 17
13 13 13 14 15 15 17 18 20 21 22 23 23 24 21 20 21 22 27 41 33 25 27 33 36 38 37 33 28 22 19 15 12 11 20 22 22 21 20 19 20 19 19
13 11 11 13 14 15 16 18 18 20 22 23 24 22 20 17 18 22 38 38 35 27 34 34 38 39 33 28 25 23 18 14 10 12 20 23 23 22 20 19 19 19 17
13 13 12 10 12 12 10 13 17 21 24 24 25 24 21 15 20 22 32 36 31 28 33 37 39 37 30 26 24 25 18 14 9 15 20 25 23 21 20 19 18 17 17
12 16 13 9 9 11 11 13 15 20 22 23 23 23 19 18 19 20 29 34 34 30 34 38 42 37 29 30 26 22 18 13 13 13 21 24 23 22 20 19 17 17 16
21 18 15 12 12 11 14 15 14 16 19 22 22 20 19 21 16 25 37 43 39 32 35 40 43 38 32 28 25 25 19 16 11 10 17 20 21 21 19 18 17 17 15
23 21 19 16 14 13 16 17 16 18 20 22 20 19 24 20 16 25 27 44 40 31 35 41 45 40 34 26 21 23 19 15 10 8 17 21 21 19 18 17 17 16 15
27 25 21 19 15 13 17 17 17 20 21 23 23 20 25 20 16 19 49 38 35 32 36 40 46 42 35 24 22 23 19 15 9 10 17 20 19 19 17 16 15 15 14
32 26 24 20 16 12 16 18 21 21 28 25 24 23 23 22 22 30 50 37 34 35 38 40 45 43 31 25 24 18 16 15 10 11 16 19 19 18 16 15 15 14 13
33 29 25 20 16 12 18 20 24 26 25 26 24 27 25 24 27 32 38 34 35 37 39 42 47 41 33 25 22 21 20 14 9 11 16 18 18 17 17 16 15 13 13
30 28 25 20 17 13 18 20 23 26 27 27 26 30 27 28 30 36 38 37 37 39 41 44 46 42 37 26 21 23 18 13 11 13 15 15 15 16 17 16 14 12 11
29 27 23 20 17 15 15 17 20 23 26 25 28 31 31 32 33 40 42 41 42 41 41 47 46 40 38 30 24 22 16 12 11 13 13 14 14 16 15 14 13 12 11
31 30 27 22 18 16 16 22 22 23 26 26 26 29 33 35 36 39 45 45 47 46 44 45 47 38 32 34 27 20 15 11 11 11 12 15 15 17 15 16 15 15 14
34 32 27 22 18 15 15 18 20 23 25 28 30 28 29 39 45 46 50 49 52 48 45 43 46 39 34 36 33 26 21 19 17 15 15 16 16 15 16 16 17 16 15
37 33 28 23 19 16 16 17 20 20 20 21 23 29 37 34 41 47 51 54 55 49 46 43 42 39 37 33 30 30 15 12 23 21 21 19 19 20 18 18 19 18 18
39 33 27 23 20 18 18 20 21 21 22 22 22 24 29 34 38 47 53 55 57 48 46 43 40 40 37 36 33 27 19 15 18 15 27 24 23 23 21 21 21 21 21
39 34 29 24 21 18 19 19 19 19 21 19 23 24 29 37 43 47 51 60 58 50 43 41 41 37 36 33 34 33 25 15 19 16 18 29 29 27 26 24 23 23 24
39 33 30 26 21 18 18 20 20 22 22 23 27 29 28 36 42 50 57 61 57 49 46 39 38 40 36 32 35 27 30 25 21 21 16 15 26 24 22 22 24 24 23
Wind_Direction
179 59 86 148 166 172 172 172 170 168 168 170 172 173 168 159 160 167 171 164 163 165 163 161 159 160 161 154 148 146 143 145 143 138 127 127 125 122 126 127 125 122 122
156 99 98 154 184 186 181 180 177 176 175 175 177 177 175 173 175 177 178 176 169 171 171 170 166 162 156 157 154 149 146 145 138 132 126 122 124 124 123 124 123 122 123
136 103 104 148 186 196 198 189 185 184 182 181 180 177 179 181 184 182 183 186 189 184 177 176 167 163 164 165 162 155 151 147 144 139 135 128 125 127 125 128 127 128 124
148 122 107 104 156 201 202 203 197 192 189 187 186 183 181 181 186 191 191 192 195 198 188 174 168 166 167 167 164 154 152 152 147 143 136 132 135 134 133 131 127 124 120
140 131 97 80 106 207 213 209 205 201 196 194 195 189 180 175 177 184 197 204 194 186 180 161 164 170 167 170 163 157 158 156 154 154 148 143 140 138 141 135 133 130 134
190 180 204 203 205 210 214 216 214 210 205 204 204 192 188 182 171 166 191 203 187 177 169 163 170 170 170 168 162 161 163 163 165 164 148 145 148 148 147 142 141 140 139
210 202 234 228 224 210 211 212 212 212 216 216 214 194 188 182 184 192 190 207 191 177 173 171 164 166 164 159 161 166 164 164 165 164 153 151 152 146 138 146 141 142 133
215 220 225 234 236 227 215 213 213 211 216 219 222 196 198 193 215 215 238 199 196 186 177 162 163 162 160 154 160 163 155 147 139 150 158 149 150 144 141 140 141 132 133
214 234 237 234 237 231 225 219 213 215 221 222 227 218 229 247 226 228 201 206 194 192 179 162 160 158 153 149 154 159 158 151 148 149 158 146 148 140 139 140 140 134 129
221 235 239 238 242 236 222 220 219 220 223 224 225 233 244 239 223 231 204 195 195 193 178 163 157 156 153 155 163 167 159 151 150 151 159 148 146 140 139 138 136 135 134
219 234 241 247 254 233 214 216 217 214 218 224 227 232 222 222 226 215 196 175 190 187 173 164 161 160 158 165 172 176 168 160 165 161 159 146 140 143 140 141 140 140 136
224 246 240 254 260 236 222 210 211 211 211 220 222 219 209 212 197 184 189 183 183 184 175 166 165 160 160 164 164 163 167 164 163 161 159 143 143 143 144 142 143 140 136
237 237 242 237 238 248 225 224 210 215 214 217 220 219 218 209 204 190 185 181 182 183 178 169 166 164 156 160 165 164 173 161 145 152 154 150 147 146 148 149 146 143 142
227 227 237 232 238 251 228 225 212 227 217 215 213 210 197 195 184 196 193 187 179 180 179 172 171 164 160 162 173 172 173 164 150 150 165 156 156 156 152 151 152 149 147
225 227 234 228 234 241 236 218 213 220 224 216 207 195 197 196 212 210 199 168 176 180 181 175 172 167 165 167 170 175 174 171 162 171 170 164 161 157 154 156 155 156 155
218 227 231 226 227 239 232 216 214 222 209 212 206 202 197 208 234 234 200 174 179 182 181 176 175 169 168 171 164 167 172 173 160 174 175 166 161 160 160 162 162 163 166
216 220 222 225 236 247 228 212 208 214 210 210 216 216 211 215 213 178 182 175 178 182 180 175 172 171 171 172 162 162 172 168 164 174 178 170 168 170 169 170 170 174 174
211 209 212 220 236 241 224 215 212 213 214 219 216 210 208 209 204 195 172 175 178 179 175 173 171 171 173 168 159 164 166 168 169 180 181 179 179 177 174 178 179 178 180
210 211 210 223 242 239 218 210 212 217 218 220 217 205 208 204 200 191 179 177 180 178 175 173 170 172 170 168 161 161 168 174 169 175 187 189 188 185 185 188 188 193 195
206 210 214 226 236 242 215 210 210 217 216 216 217 214 208 204 204 196 190 186 182 178 172 173 171 173 174 172 162 164 171 176 180 181 183 193 197 197 201 207 208 212 216
203 210 212 220 229 235 216 206 213 214 210 213 217 214 210 209 206 203 190 187 181 178 175 175 178 178 176 175 159 159 167 189 201 197 195 198 201 204 212 221 227 228 231
206 207 210 214 226 235 221 213 220 214 215 214 215 213 217 215 205 202 194 187 181 176 177 174 178 174 175 178 177 169 171 195 213 222 223 217 221 220 226 230 235 240 245
203 207 211 216 222 220 211 205 207 207 211 213 215 215 215 212 213 204 196 191 184 179 178 179 179 174 170 173 176 178 170 196 203 219 227 229 231 237 240 245 250 254 257
202 203 209 214 219 218 208 204 204 204 203 210 209 214 213 210 212 208 203 187 183 179 179 182 179 178 169 174 182 191 189 198 186 206 222 229 233 240 247 251 258 263 266
202 203 207 210 218 216 203 204 206 208 211 204 213 216 214 210 208 215 215 187 184 182 177 182 181 177 177 184 197 197 207 213 207 205 213 223 232 239 246 253 260 267 271
197 200 205 208 213 208 194 200 206 207 202 200 200 195 190 185 180 182 189 180 184 180 180 183 184 186 195 197 201 205 210 212 209 212 220 230 231 240 245 253 260 264 271